User: anonymous   Login
Location: Camoruquito
(9.9001°N, 67.3564°W)
Time: 00:17:09
(UTC+00:00)
Language:

Cosmos 1420 Rocket - Orbit

View from above orbital plane
View from above orbital plane
View from above satellite
View from above satellite

Ground track
Ground track

The orbit data is extracted from the following two-line orbital elements,

1 13649U 82109B   24175.56487569  .00000367  00000-0  13005-3 0  9990
2 13649  74.0009 326.1643 0019023 242.5168 190.9440 14.37907832179630
Epoch (UTC): 23 June 2024 13:33:25
Eccentricity: 0.0019023
inclination: 74.0009°
perigee height: 752 km
apogee height: 779 km
right ascension of ascending node: 326.1643°
argument of perigee: 242.5168°
revolutions per day: 14.37907832
mean anomaly at epoch: 190.9440°
orbit number at epoch: 17963

The dashed part of the orbit path shows where the satellite is in the earth's shadow,  

DLR